This is the latest recevied weather packets stored in our database for station/object K5NAN. If no packets are shown the sender has not sent any weather packets the latest 1 day(s).
| Time | Temp. | Humidity | Pressure | Rain* | Wind** | Luminosity | Snow |
|---|---|---|---|---|---|---|---|
| 1777987624 | 21.67° C | 85% | 1003.8 hPa | 0 mm | 3.13 m/s, 195° | 118 W/m² | - |
| 1777987322 | 21.67° C | 85% | 1003.9 hPa | 0 mm | 4.92 m/s, 164° | 96 W/m² | - |
| 1777987019 | 21.11° C | 85% | 1004.1 hPa | 0 mm | 4.92 m/s, 204° | 112 W/m² | - |
| 1777986717 | 21.11° C | 85% | 1003.9 hPa | 0 mm | 3.13 m/s, 212° | 73 W/m² | - |
| 1777986414 | 21.11° C | 85% | 1004 hPa | 0 mm | 3.13 m/s, 182° | 50 W/m² | - |
| 1777986113 | 21.11° C | 85% | 1003.9 hPa | 0 mm | 3.58 m/s, 181° | 40 W/m² | - |
| 1777985808 | 21.11° C | 85% | 1004 hPa | 0 mm | 4.02 m/s, 205° | 46 W/m² | - |
| 1777985506 | 21.11° C | 86% | 1003.8 hPa | 0 mm | 2.68 m/s, 181° | 36 W/m² | - |
| 1777985202 | 21.11° C | 86% | 1003.6 hPa | 0 mm | 4.92 m/s, 189° | 36 W/m² | - |
| 1777984899 | 21.11° C | 86% | 1003.7 hPa | 0 mm | 4.47 m/s, 179° | 29 W/m² | - |
| 1777984595 | 21.11° C | 86% | 1003.7 hPa | 0 mm | 3.13 m/s, 150° | 29 W/m² | - |
| 1777984292 | 21.11° C | 85% | 1003.8 hPa | 0 mm | 3.58 m/s, 190° | 21 W/m² | - |
| 1777983988 | 21.11° C | 85% | 1003.7 hPa | 0 mm | 4.47 m/s, 165° | 19 W/m² | - |
| 1777983686 | 21.11° C | 85% | 1003.5 hPa | 0 mm | 3.13 m/s, 200° | 17 W/m² | - |
| 1777983382 | 21.11° C | 85% | 1003.3 hPa | 0 mm | 3.58 m/s, 174° | 13 W/m² | - |
| 1777983079 | 21.11° C | 85% | 1003.4 hPa | 0 mm | 4.47 m/s, 194° | 9 W/m² | - |
| 1777982775 | 21.11° C | 85% | 1003.2 hPa | 0 mm | 6.26 m/s, 162° | 15 W/m² | - |
| 1777982472 | 21.11° C | 86% | 1003.3 hPa | 0 mm | 3.13 m/s, 143° | 10 W/m² | - |
| 1777982166 | 21.11° C | 86% | 1003.4 hPa | 0 mm | 3.13 m/s, 162° | 8 W/m² | - |
| 1777981864 | 20.56° C | 86% | 1003.5 hPa | 0 mm | 4.92 m/s, 180° | 5 W/m² | - |
| 1777981560 | 20.56° C | 85% | 1003.2 hPa | 0 mm | 2.68 m/s, 202° | 3 W/m² | - |
| 1777981256 | 20.56° C | 85% | 1003.2 hPa | 0 mm | 3.58 m/s, 153° | 2 W/m² | - |
| 1777980953 | 20.56° C | 85% | 1003.1 hPa | 0 mm | 4.02 m/s, 180° | 1 W/m² | - |
| 1777980650 | 20.56° C | 86% | 1003 hPa | 0 mm | 4.02 m/s, 178° | 0 W/m² | - |
| 1777980346 | 20.56° C | 86% | 1003.2 hPa | 0 mm | 3.13 m/s, 200° | 0 W/m² | - |
* Rain latest hour (hover to see other rain measurements)
** Current wind speed in m/s (hover to see current wind gust speed)